Weather Roundup
Issued by NWS

Home | Current Version | Previous Version | Text Only | Print | Product List | Glossary On
Versions: 1 2 3 4 5 6 7 8 9 10 11 12 13 14 15 16 17 18 19 20 21 22 23 24 25 26 27 28 29 30 31 32 33 34 35 36 37 38 39 40 41 42 43 44 45 46 47 48 49 50
000
NZUS93 KARX 272310
HRRWXR

CURRENT HOURLY OBSERVATIONS ACROSS
MUCH OF THE UPPER MISSISSIPPI VALLEY
NATIONAL WEATHER SERVICE LA CROSSE WI
600 PM CDT SUN JUL 27 2014


...SOUTHEAST MINNESOTA...


CITY           SKY/WX    TMP DP  RH WIND       PRES   REMARKS
ROCHESTER      PTSUNNY   74  58  57 NW18G25   29.98R
ROCHESTER/MAYO MOCLDY    73  55  54 NW14G25   29.97R
WINONA         PTSUNNY   70  64  83 NW9       29.94R
AUSTIN         PTSUNNY   73  59  60 NW15G23   29.98R
ALBERT LEA     MOSUNNY   72  61  68 NW12G21   30.00R
DODGE CENTER   MOSUNNY   73  61  64 N9        29.98S
PRESTON        SUNNY     72  62  70 N21G26    29.96R
OWATONNA       MOSUNNY   73  61  64 NW14      29.99R
FARIBAULT      PTSUNNY   77  55  47 N12G17    29.99R
$$

...ELSEWHERE IN MINNESOTA...


CITY           SKY/WX    TMP DP  RH WIND       PRES   REMARKS
MINNEAPOLIS    PTSUNNY   72  59  63 N20G26    30.00R
INTNL FALLS    SUNNY     70  51  51 N12       30.09R
DULUTH         PTSUNNY   60  55  83 CALM      30.06S
RED WING       MOSUNNY   72  61  68 N13G18    29.96R
REDWOOD FALLS  MOSUNNY   73  58  59 NW21G30   30.07R
MANKATO        CLOUDY    70  57  64 NW13G20   30.02R
WORTHINGTON    MOSUNNY   70  55  60 NW17G25   30.13S
FAIRMONT       CLOUDY    72  55  56 NW21G26   30.05R
$$

...SOUTHWEST WISCONSIN...


CITY           SKY/WX    TMP DP  RH WIND       PRES   REMARKS
LA CROSSE      MOSUNNY   75  62  64 NW15      29.90R
PRAIRIE DU CHI MOSUNNY   76  55  49 NW15G21   29.89R
BOSCOBEL       PTSUNNY   79  60  52 NW8G20    29.88R
LONE ROCK      PTSUNNY   78  61  55 NW18      29.86R
PLATTEVILLE    PTSUNNY   74  57  56 NW13G22   29.89R
FORT MC COY    MOSUNNY   70  62  75 NW9       29.90R
CAMP DOUGLAS   MOSUNNY   69  65  87 NW9       29.88R
VIROQUA        FAIR      72  60  66 N13G23    29.91R
WIS DELLS      MOSUNNY   70  61  73 NW9       29.86R
$$

...ELSEWHERE IN WISCONSIN...


CITY           SKY/WX    TMP DP  RH WIND       PRES   REMARKS
MILWAUKEE      PTSUNNY   69  62  78 NW12      29.77R
MADISON        PTSUNNY   74  60  61 NW13G23   29.82R
GREEN BAY      PTSUNNY   70  61  73 N23G30    29.81R
EAU CLAIRE     PTSUNNY   72  58  61 N16G26    29.95R
BLACK RVR FLS  FAIR      74  56  54 N10G20    29.90R
MEDFORD        MOSUNNY   65  58  77 N17G24    29.94R
WAUSAU         LGT RAIN  66  60  81 N12G30    29.88R
WIS RAPIDS     MOSUNNY   68  61  78 MISG      29.88R
MARSHFIELD     CLOUDY    68  59  73 N12       29.90R
RICE LAKE      CLOUDY    65  55  67 N15G21    30.03R
$$

...NORTHEAST IOWA...


CITY           SKY/WX    TMP DP  RH WIND       PRES   REMARKS
WATERLOO       PTSUNNY   74  58  57 NW21G29   29.95R
DUBUQUE        MOSUNNY   73  59  61 NW16G25   29.90R
DECORAH        PTSUNNY   73  59  60 N15       29.92S
MASON CITY     MOSUNNY   74  60  61 NW23G35   30.02R
CHARLES CITY   PTSUNNY   72  61  68 NW18G28   29.98R
OELWEIN        SUNNY     73  61  64 NW13G23   29.96R
$$

...ELSEWHERE IN IOWA...


CITY           SKY/WX    TMP DP  RH WIND       PRES   REMARKS
DES MOINES     MOSUNNY   76  57  51 N21G30    30.03R
IOWA CITY      MOSUNNY   75  59  57 NW20G30   29.95R
FORT DODGE     PTSUNNY   72  57  60 NW13G21   30.07R
MARSHALLTOWN   CLOUDY    72  60  66 NW17G26   30.00R
CEDAR RAPIDS   MOSUNNY   74  59  59 NW23G31   29.94R
$$

...NORTHERN ILLINOIS...


CITY           SKY/WX    TMP DP  RH WIND       PRES   REMARKS
CHICAGO-OHARE  PTSUNNY   78  54  43 W25G36    29.77R
DUPAGE         CLOUDY    74  55  51 NW20G33   29.79R
CHICAGO-MIDWAY PTSUNNY   79  55  43 NW22G33   29.76R
MOLINE         MOSUNNY   76  57  51 NW22G30   29.89R
ROCKFORD       PTSUNNY   77  57  50 NW18G25   29.83R
STERLING       SUNNY     75  57  53 NW18G26   29.86R
PEORIA         PTSUNNY   78  56  46 NW17G25   29.88R
$$

NOTE: "FAIR" INDICATES FEW OR NO CLOUDS BELOW 12,000 FEET WITH NO
SIGNIFICANT WEATHER AND/OR OBSTRUCTIONS TO VISIBILITY. WIND
SPEEDS ARE IN MILES-PER-HOUR.



USA.gov is the U.S. government's official web portal to all federal, state and local government web resources and services.